This demonstration page uses our WeatherBlox Daily Observations layout. Learn more.

Left ArrowRight Arrow

Hourly Observations for June 9, 2019

Temp ( °F °C ) Dew Point ( °F °C ) Humidity (%) Winds ( mph kmh ) Pressure ( in mb ) Visibility ( mi km ) Precip ( " mm )
6:30 am 06:30 Cloudy with Light Rain 66 19 63 17 88 88 E 5 7 29.88 1012 5 8 N/A
6:47 am 06:47 Cloudy with Light Rain 66 19 63 17 88 88 E 6 9 29.89 1012 5 8 N/A
7:47 am 07:47 Cloudy with Light Rain 66 19 63 17 88 88 E 7 11 29.91 1013 7 11 N/A
8:16 am 08:16 Cloudy with Light Rain 66 19 63 17 88 88 ESE 7 11 29.91 1013 3 4 N/A
8:59 am 08:59 Cloudy with Light Rain 66 19 64 18 94 94 E 8 13 29.92 1013 3 5 N/A
9:21 am 09:21 Cloudy with Light Rain 66 19 64 18 94 94 E 9 15 29.92 1013 3 5 N/A
9:45 am 09:45 Cloudy with Light Rain 66 19 64 18 94 94 ESE 9 15 29.92 1013 5 8 N/A
10:45 am 10:45 Cloudy with Light Rain 68 20 64 18 88 88 ESE 9 15 29.91 1013 10 16 N/A
11:45 am 11:45 Cloudy with Light Rain 72 22 66 19 83 83 ESE 9 15 29.91 1013 10 16 N/A
12:45 pm 12:45 Cloudy 73 23 66 19 78 78 ESE 12 19 29.90 1012 10 16 N/A
1:45 pm 13:45 Cloudy 73 23 66 19 78 78 SE 7 11 29.90 1012 10 16 N/A
2:53 pm 14:53 Cloudy with Light Showers 73 23 66 19 78 78 ESE 9 15 29.89 1012 7 11 N/A
3:51 pm 15:51 Cloudy 72 22 68 20 88 88 WSW 3 6 29.89 1012 8 13 N/A
4:55 pm 16:55 Mostly Cloudy 75 24 68 20 78 78 Calm 29.88 1012 8 13 N/A
5:49 pm 17:49 Mostly Cloudy 75 24 66 19 74 74 E 5 7 29.88 1012 8 13 N/A
6:10 pm 18:10 Cloudy with Light Showers 73 23 68 20 83 83 Calm 29.88 1012 6 10 N/A
6:19 pm 18:19 Cloudy with Thunderstorms 73 23 68 20 83 83 SSW 3 6 29.89 1012 3 5 N/A
6:47 pm 18:47 Cloudy with Thunderstorms 72 22 68 20 88 88 ESE 5 7 29.90 1013 2 2 N/A
7:08 pm 19:08 Cloudy with Light Showers 70 21 66 19 88 88 S 6 9 29.90 1013 4 6 N/A
7:57 pm 19:57 Cloudy with Light Showers 70 21 66 19 88 88 ESE 3 6 29.90 1013 4 6 N/A
8:47 pm 20:47 Cloudy 70 21 66 19 88 88 Calm 29.91 1013 8 13 N/A
9:52 pm 21:52 Cloudy 68 20 66 19 94 94 Calm 29.90 1013 8 13 N/A

Powered by AerisWeather